Weather History for Corsicana, TX

Change the Weather History Date:

Sunday, March 9, 2014

  Actual Average (KACT) Record (KACT)
Temperature  
Mean Temperature 50 °F 56 °F  
Max Temperature 60 °F 67 °F 92 °F (1911)
Min Temperature 39 °F 46 °F 16 °F (1996)
Degree Days  
Heating Degree Days 16 9  
Month to date heating degree days 93  
Since 1 July heating degree days 1905  
Cooling Degree Days 0 1  
Month to date cooling degree days 8  
Year to date cooling degree days 17  
Moisture  
Dew Point 39 °F    
Average Humidity 75    
Maximum Humidity 86    
Minimum Humidity 53    
Precipitation  
Precipitation 0.00 in 0.11 in 1.51 in (1953)
Month to date precipitation 1.02  
Year to date precipitation 5.77  
Snow  
Snow 0.00 in 0.00 in 2.50 in (1915)
Month to date snowfall 0.0  
Since 1 July snowfall 0.9  
Snow Depth -    
Sea Level Pressure  
Sea Level Pressure 30.30 in    
Wind  
Wind Speed 9 mph (North)    
Max Wind Speed 13 mph    
Max Gust Speed 22 mph    
Visibility 7 miles    
Events      
T = Trace of Precipitation, MM = Missing Value Source: NWS Daily Summary

Daily Weather History Graph

Daily Weather History Graph

Search for Another Location

Airport:

Trip Planner

Search our weather history database for the weather conditions in past years. The results will help you decide how hot, cold, wet, or windy it might be!

Date:

Astronomy

Mar. 09, 2014 Rise Set
Actual Time 7:43 AM CDT 7:29 PM CDT
Civil Twilight 7:18 AM CDT 7:53 PM CDT
Nautical Twilight 6:50 AM CDT 8:22 PM CDT
Astronomical Twilight 6:22 AM CDT 8:50 PM CDT
Moon 1:37 PM CDT (3/9) 3:55 AM CDT (3/9)
Length of Visible Light 12h 34m
Length of Day
11h 46m
First Quarter, 61% of the Moon is Illuminated
Mar 9
First Quarter
Mar 16
Full
Mar 23
Last Quarter
Mar 30
New
Apr 7
First Quarter

Hourly Weather History & Observations

Time (CDT) Temp. Windchill Dew Point Humidity Pressure Visibility Wind Dir Wind Speed Gust Speed Precip Events Conditions
12:08 AM 39.9 °F 33.4 °F 35.1 °F 83% 30.31 in 7.0 mi NNW 10.4 mph - N/A   Overcast
12:53 AM 39.9 °F 32.9 °F 35.1 °F 83% 30.30 in 6.0 mi NNW 11.5 mph - N/A   Haze
1:53 AM 39.9 °F 32.5 °F 34.0 °F 79% 30.29 in 7.0 mi North 12.7 mph 21.9 mph N/A   Overcast
3:53 AM 39.9 °F 33.9 °F 35.1 °F 83% 30.29 in 7.0 mi NNW 9.2 mph - N/A   Overcast
4:53 AM 39.9 °F 33.9 °F 35.1 °F 83% 30.30 in 6.0 mi NNW 9.2 mph - N/A   Haze
5:53 AM 39.9 °F 32.9 °F 34.0 °F 79% 30.31 in 8.0 mi North 11.5 mph - N/A   Overcast
6:53 AM 39.0 °F 32.8 °F 34.0 °F 82% 30.32 in 6.0 mi North 9.2 mph - N/A   Haze
7:53 AM 39.0 °F 31.8 °F 34.0 °F 82% 30.34 in 8.0 mi NNW 11.5 mph - N/A   Overcast
8:53 AM 39.9 °F 33.9 °F 35.1 °F 83% 30.35 in 4.0 mi NW 9.2 mph - N/A   Haze
9:05 AM 39.9 °F 33.4 °F 35.1 °F 83% 30.34 in 4.0 mi NNW 10.4 mph - N/A   Haze
9:15 AM 39.9 °F 32.9 °F 35.1 °F 83% 30.34 in 4.0 mi NNW 11.5 mph - N/A   Haze
9:53 AM 41.0 °F 35.2 °F 36.0 °F 82% 30.37 in 4.0 mi North 9.2 mph - N/A   Haze
10:11 AM 41.0 °F 33.9 °F 36.0 °F 82% 30.36 in 4.0 mi North 12.7 mph - N/A   Haze
10:53 AM 43.0 °F 37.7 °F 37.0 °F 80% 30.36 in 4.0 mi North 9.2 mph - N/A   Haze
11:53 AM 46.0 °F 42.5 °F 37.9 °F 73% 30.36 in 5.0 mi North 6.9 mph - N/A   Haze
12:19 PM 48.0 °F - 39.0 °F 71% 30.35 in 5.0 mi North 6.9 mph - N/A   Haze
12:53 PM 51.1 °F - 39.9 °F 66% 30.34 in 6.0 mi Variable 5.8 mph - N/A   Haze
1:00 PM 51.1 °F - 39.9 °F 66% 30.34 in 7.0 mi NE 6.9 mph - N/A   Scattered Clouds
1:34 PM 53.1 °F - 41.0 °F 64% 30.33 in 7.0 mi NNW 8.1 mph - N/A   Mostly Cloudy
1:53 PM 54.0 °F - 41.0 °F 62% 30.32 in 8.0 mi NNW 8.1 mph - N/A   Scattered Clouds
2:53 PM 57.0 °F - 42.1 °F 57% 30.28 in 9.0 mi Variable 3.5 mph - N/A   Clear
3:53 PM 57.9 °F - 43.0 °F 58% 30.25 in 9.0 mi SSE 5.8 mph - N/A   Clear
4:53 PM 60.1 °F - 43.0 °F 53% 30.23 in 10.0 mi Calm Calm - N/A   Clear
5:53 PM 57.0 °F - 44.1 °F 62% 30.22 in 10.0 mi SE 8.1 mph - N/A   Clear
6:53 PM 55.9 °F - 44.1 °F 64% 30.21 in 10.0 mi ESE 4.6 mph - N/A   Clear
7:53 PM 53.1 °F - 43.0 °F 69% 30.22 in 10.0 mi SE 3.5 mph - N/A   Clear
8:53 PM 51.1 °F - 43.0 °F 74% 30.22 in 9.0 mi ESE 4.6 mph - N/A   Clear
9:53 PM 48.9 °F - 42.1 °F 77% 30.23 in 10.0 mi SSE 5.8 mph - N/A   Clear
10:53 PM 48.0 °F - 42.1 °F 80% 30.24 in 10.0 mi SSE 4.6 mph - N/A   Clear
11:53 PM 46.9 °F - 42.1 °F 83% 30.22 in 10.0 mi South 5.8 mph - N/A   Clear
12:53 AM 46.0 °F 43.1 °F 42.1 °F 86% 30.21 in 7.0 mi South 5.8 mph - N/A   Clear